Track NSS 703 (INTELSAT 703) now! NSS 703 (INTELSAT 703) is classified as:
1 23305U 94064A 22133.99351832 -.00000083 00000-0 00000-0 0 9999 2 23305 9.0457 47.1882 0002680 320.1629 233.3112 0.99306410100883